Regional Weather Roundup
Issued by NWS

Home | Current Version | Previous Version | Graphics & Text | Print | Product List | Glossary On
Versions: 1 2 3 4 5 6 7 8 9 10 11 12 13 14 15 16 17 18 19 20 21 22 23 24 25 26 27 28 29 30 31 32 33 34 35 36 37 38 39 40 41 42 43 44 45 46 47 48 49 50
000
ASUS43 KTOP 271308
RWRKS

WEATHER ROUNDUP FOR KANSAS
NATIONAL WEATHER SERVICE GOODLAND KS
800 AM CDT MON APR 27 2015

NOTE:  "FAIR" INDICATES FEW OR NO CLOUDS BELOW 12,000 FEET WITH NO
SIGNIFICANT WEATHER AND/OR OBSTRUCTIONS TO VISIBILITY.

KSZ001>006-013>018-027>032-041>047-271400-
NORTHWEST KANSAS

CITY           SKY/WX    TMP DP  RH WIND       PRES   REMARKS
GOODLAND       CLOUDY    41  40  96 NE9       30.15R FOG
HAYS           CLOUDY    43  30  61 NE12      30.10R
HILL CITY      CLOUDY    44  35  70 NE9       30.14R
RUSSELL        CLOUDY    43  37  79 NE12      30.09R
$$

KSZ061>065-074>080-084>089-271400-
SOUTHWEST KANSAS

CITY           SKY/WX    TMP DP  RH WIND       PRES   REMARKS
DODGE CITY     CLOUDY    44  39  82 NE22      30.02R
ELKHART          N/A     42  37  82 NE17        N/A
GARDEN CITY    CLOUDY    43  39  86 NE20      30.04R
GREAT BEND     PTSUNNY   46  36  66 NE13G21   30.07R
LIBERAL        CLOUDY    45  39  81 NE21G26   29.99R
$$

KSZ066>073-081>083-090>101-271400-
SOUTHEAST KANSAS

CITY           SKY/WX    TMP DP  RH WIND       PRES   REMARKS
CHANUTE        CLOUDY    50  39  66 NE13      30.06R
COFFEYVILLE    CLOUDY    51  40  65 NE14      30.01R
HUTCHINSON     CLOUDY    48  37  65 NE13      30.05R
MEDICINE LODGE   N/A     47  42  83 NE20G29   29.95R
NEWTON         CLOUDY    46  36  66 NE12G17   30.06R
WICHITA INTL   CLOUDY    51  36  56 NE17      30.02R
WICHITA JABRA  CLOUDY    49  37  63 NE16      30.02R
WICHITA MCCONL CLOUDY    51  37  58 E20       30.01R
WINFIELD       CLOUDY    50  41  71 NE15G23   29.99R
$$

KSZ007>012-019>026-033>040-048>060-102>105-271400-
NORTHEAST KANSAS

CITY           SKY/WX    TMP DP  RH WIND       PRES   REMARKS
CONCORDIA      CLOUDY    43  35  73 NE6       30.14R
EMPORIA        CLOUDY    46  38  73 NE9       30.09R
LAWRENCE       CLOUDY    45  38  76 N3        30.14R
MANHATTAN      CLOUDY    44  38  79 NE5       30.14R
MARYSVILLE     CLOUDY    41  36  81 NE7       30.16R
OLATHE IND     CLOUDY    47  40  76 N6        30.13R
OLATHE EXE     CLOUDY    47  39  74 NE6       30.12R
SALINA         CLOUDY    47  36  65 NE12      30.10S
TOPEKA BILLARD CLOUDY    45  38  76 NE3       30.14R
TOPEKA FORBES  CLOUDY    46  38  73 N6        30.13R
$$



USA.gov is the U.S. government's official web portal to all federal, state and local government web resources and services.